Location: Bennemühlen
(52.5740°N, 9.7135°E)
Time: 10:00:58
(UTC+00:00)

SR - Pass Details

Date: 18 February 2026
Orbit: 573 x 848 km, 66.7° (Epoch: 7 March)

Event Time Altitude Azimuth Distance (km) Brightness Sun altitude
Exits shadow 02:58:12 16° 113° (ESE) 1,594 ? -32.5°
Maximum altitude 02:58:29 16° 108° (ESE) 1,593 ? -32.4°
Drops below altitude 10° 03:01:05 10° 72° (ENE) 1,964 ? -32.1°
Sets 03:04:10 0° 50° (NE) 2,922 ? -31.6°
